Vertical_Velocity
4 -1 1 -6 -2 -1 -0 0 -2 0 0 1 3 2 1 3 8 11 -6 4 14 2 1 2 -2 -9 -1 -3 -13 22 8 -24 -20 -9 -5 -10 -7 -19 5 2 4 15 10 17 7 -13 -4 6 12 -25 41 15 9 -8
4 -0 -0 1 0 -1 -0 -1 -1 0 5 5 2 4 1 1 5 9 -14 4 7 51 -3 5 5 8 14 7 -10 -8 7 2 2 -5 -7 2 -10 22 -2 -27 4 -26 -8 6 -4 9 20 23 2 9 -6 -2 -7 -2
4 -0 -2 -0 -2 -3 -3 -1 -2 -4 2 1 2 2 2 4 6 -6 -1 15 23 13 19 -0 -11 -6 11 0 4 4 13 -3 -8 6 4 -1 -14 2 4 -9 2 -17 10 -8 -5 19 12 16 -6 8 -2 5 5 -7
-1 2 1 -0 -3 -2 -3 -2 -3 10 0 3 1 3 -2 3 -3 11 -1 14 -17 38 -3 -6 -1 -13 -2 2 39 13 3 2 -0 4 2 5 5 1 -6 7 -9 9 20 -4 -8 6 5 -7 13 1 -4 6 23 11
1 3 1 -1 -3 2 0 -5 -3 6 2 -5 3 3 -0 35 12 2 5 -7 21 50 -1 12 5 18 5 1 -1 3 4 -6 4 -4 -9 -4 9 6 4 9 -9 -2 -8 -13 -6 10 10 6 -3 -3 12 9 4 -3
2 0 0 -1 -1 -0 -3 -5 -1 -0 -3 -3 -0 -2 5 -2 3 6 3 6 12 -5 1 3 -7 7 7 1 -7 -4 4 -2 1 -4 -5 0 21 -10 0 -10 14 2 0 -11 7 25 -3 -2 -4 -4 1 3 8 4
2 -2 0 1 -0 -2 -3 -2 -2 -2 -3 -1 -2 -1 -5 -3 -13 -10 -14 8 -22 7 3 -6 2 5 -9 -5 -3 -2 1 1 -2 -0 1 9 21 6 -2 4 17 -8 -11 -5 -16 -22 -6 -1 -4 -4 -2 1 2 0
1 1 -1 -1 -1 -4 -4 0 -2 -1 -3 -4 -7 -9 16 37 1 1 -5 -13 9 -2 1 -0 -3 1 -2 1 -3 -5 -0 1 3 8 5 3 10 3 -7 14 6 1 3 -6 -7 -8 2 6 1 -2 1 1 2 3
3 2 2 0 -0 -0 -0 0 -0 1 1 -2 -1 3 4 25 3 -5 -1 -1 -2 3 3 4 5 4 0 3 -2 -0 -5 -1 -0 -8 -5 6 25 -7 -12 10 3 -1 1 2 -0 1 -1 -4 1 6 2 5 3 -2
2 2 2 1 0 0 -0 -0 0 0 3 4 7 1 -6 -3 4 4 5 3 1 -2 -1 -2 -1 -2 -0 0 -2 -1 -1 -2 -3 6 12 1 61 9 5 -1 -1 2 2 -2 -5 4 2 -4 -0 -8 2 10 4 -1
0 2 3 2 2 -0 -3 -3 0 0 1 2 4 1 -4 -3 -3 -2 -3 -2 -0 -2 3 -1 1 3 0 2 -4 -5 -3 0 -7 1 10 12 -7 1 -7 -0 1 2 1 4 1 -2 -2 3 1 1 4 2 1 3
1 1 1 1 1 1 0 0 1 2 1 1 2 2 2 1 1 2 2 3 -1 0 -2 -4 1 4 3 4 -3 -3 -1 6 1 7 3 -13 -11 -2 4 5 5 8 4 0 -1 -0 -0 -3 -2 -1 -0 0 2 3
2 4 5 4 3 2 2 4 3 1 1 -0 -2 -1 -0 -0 -2 2 -0 1 -2 6 2 -3 3 10 13 -7 -3 3 6 3 -1 -6 -17 -22 -12 -6 0 6 7 6 1 -1 -1 -0 -0 -1 0 2 4 5 6 7
-2 -1 -0 2 2 -0 -0 2 1 -1 -2 1 3 1 2 1 -1 -1 -3 -1 -2 -3 1 -6 3 5 10 1 -8 7 -3 4 23 -7 -7 -11 -6 1 5 6 5 4 2 2 1 1 1 2 2 2 3 1 1 2
2 3 5 5 1 -3 1 -0 4 1 1 3 2 1 -0 -3 -2 -3 -4 1 -3 -1 1 4 -2 0 6 6 -10 -3 -3 40 14 8 1 0 2 2 2 1 6 3 12 7 -1 0 3 3 2 2 1 -0 -1 -0
3 3 6 4 3 1 3 3 2 3 -1 -2 -2 -1 -3 -4 -4 -2 -3 -2 1 -1 -2 -3 1 2 17 23 23 -1 2 4 -5 5 -1 2 5 8 6 5 10 9 7 4 3 2 2 1 0 1 1 1 1 1
3 8 7 10 2 2 0 -1 1 1 -1 -2 -1 3 -3 1 -1 -0 3 5 0 2 -2 2 4 4 4 2 6 0 7 4 7 13 9 7 16 7 4 7 6 2 -0 0 0 1 2 2 1 1 1 1 -1 -0
1 1 -0 1 4 2 2 -0 -3 -2 3 6 3 3 -0 -0 2 6 3 4 -2 -4 -1 0 2 4 4 2 -1 -5 -4 -1 2 -1 -3 1 2 4 5 2 2 1 -0 0 0 1 1 2 2 2 2 2 2 3
-2 -2 -1 -1 3 4 7 -4 0 -4 -4 0 7 3 4 3 5 0 -3 -1 1 1 2 3 3 3 2 3 4 4 3 2 -0 -2 -2 0 5 8 9 8 7 6 6 5 4 4 3 4 3 5 4 3 2 2
-1 -1 -0 -0 -0 3 3 -5 11 4 -3 -4 -6 -1 2 2 1 4 4 5 5 6 3 1 2 -5 -5 -3 -4 -2 -2 2 3 5 3 3 3 2 3 3 3 2 2 2 2 1 1 1 0 1 1 -1 -1 -0
-0 -1 -1 -1 -0 6 5 4 2 0 -2 0 -1 2 4 -2 -4 -5 -1 -1 1 -3 -2 -4 -3 -4 -4 -5 -5 -5 -5 -5 -4 -2 -3 -4 -4 -3 -3 -4 -4 -4 -4 -4 -3 -4 -3 -1 -1 -1 -1 -1 -1 -1
0 0 -0 -1 -4 0 -3 -1 3 1 2 2 3 6 1 1 2 -0 -4 -7 -1 -1 -2 -2 -2 -2 -3 -3 -4 -3 -2 -3 -3 -4 -4 -4 -4 -3 -3 -3 -3 -1 -1 0 0 1 0 0 -0 -2 -2 -1 -1 -2
-0 0 0 -2 -1 -2 -3 -0 -1 2 2 1 0 3 3 2 2 2 0 3 2 1 1 0 0 0 -0 -1 -0 -1 -1 -1 -1 -0 -1 0 1 2 3 3 3 2 2 1 2 2 1 -0 -1 0 0 -0 -1 -2
1 2 0 -2 2 -0 -1 -2 -2 -2 -2 -2 -3 -2 -3 -3 -2 -4 -3 -3 -3 -3 -3 -2 -3 -3 -2 -3 -4 -5 -6 -7 -5 -1 1 2 2 2 2 2 3 2 2 2 2 1 2 -1 -1 1 -0 -0 0 1
2 2 -1 1 -0 -1 -1 -2 -2 -2 -3 -2 -2 -1 -1 -0 -1 -2 -1 -2 -3 -3 -2 -1 -1 -1 -2 -4 -2 -1 -0 0 -1 -0 -0 -0 -1 -1 1 2 1 1 1 -0 0 -0 0 1 -1 -1 -0 -1 -1 -1
3 1 -1 1 -1 -1 -1 -2 -1 -1 -0 -2 -3 -3 -2 -2 -2 -2 -1 -2 -2 -1 -1 -2 -2 -3 -4 -3 -0 0 -1 -2 -2 -1 -0 -0 0 3 3 -1 -0 -0 1 1 -0 -1 -1 -0 -0 -2 -1 -1 -1 -1
0 0 -0 0 -1 -0 -2 -3 -2 -2 -2 -4 -2 -2 -1 -2 -2 -3 -3 -3 -2 -3 -3 -3 -4 -4 -1 -1 -1 -2 -2 -1 -0 0 -1 -1 -1 -0 0 1 1 1 -0 0 0 0 0 -0 0 0 0 1 0 -0
3 1 -0 -1 -3 -3 -2 -2 -1 -1 -1 -2 -2 -2 -2 -2 -2 -2 -1 -2 -3 -5 -4 -4 -2 1 0 -1 -2 -1 -0 -0 0 -0 -0 0 -2 -1 -1 -0 -0 0 0 0 0 0 0 0 1 1 0 -0 -1 -1
-1 -0 -2 -1 -1 -1 -2 -3 -2 -3 -3 -3 -3 -2 -2 -1 -1 -1 -2 -2 -2 -3 -3 0 -2 -1 -1 -2 -1 1 0 1 1 1 1 -1 -2 0 0 -0 0 0 1 1 1 0 0 0 -0 -1 -2 -2 -2 -3
1 1 1 -0 -1 -2 -3 -3 -3 -3 -3 -2 -1 -2 -1 -1 -1 -2 -3 -2 -3 -2 -1 -2 0 -0 -1 -1 0 0 0 1 -0 -0 -1 -1 -1 -1 -1 -0 0 0 0 0 0 0 -0 -1 -1 -2 -2 -3 -2 -2
2 2 -1 -1 -3 -3 -2 -1 -2 -2 -1 -2 -2 -2 -2 -2 -3 -4 -4 -4 -3 -2 -2 -1 -1 -0 1 1 -1 -1 1 -0 0 0 0 -0 -0 -0 -0 -0 0 0 -0 -0 -0 -1 -1 -1 -1 -1 -1 -1 -1 -1
1 -1 -1 -1 -1 -1 -1 -0 0 0 -1 -0 -1 -2 -3 -3 -4 -4 -5 -4 -3 -2 -3 -1 -2 -1 -2 -1 -1 -1 -1 -0 0 0 0 -0 0 0 0 1 0 -0 -0 -0 -0 -1 -0 -0 -0 -0 -0 -1 -1 -1
0 2 1 -2 -1 0 -1 2 1 -1 -2 -1 -1 -0 -1 -3 -4 -5 -5 -3 -4 -4 -3 -1 -1 -0 -0 -0 -0 -0 -0 -0 0 0 0 0 1 1 1 0 0 -0 -0 -0 0 0 -0 -0 -0 -1 -1 -1 -1 -1
Height
5324 5322 5322 5321 5318 5313 5308 5303 5299 5298 5299 5304 5312 5323 5335 5347 5360 5370 5385 5398 5412 5420 5442 5445 5458 5468 5474 5480 5487 5501 5504 5511 5521 5527 5534 5540 5545 5554 5560 5568 5568 5575 5580 5585 5592 5597 5602 5612 5615 5620 5628 5633 5634 5636
5315 5314 5312 5310 5304 5298 5292 5285 5280 5274 5275 5284 5295 5308 5321 5332 5346 5358 5374 5392 5407 5420 5429 5439 5455 5460 5464 5474 5481 5488 5498 5507 5514 5519 5527 5533 5539 5545 5550 5557 5565 5571 5580 5584 5586 5591 5596 5605 5605 5611 5613 5619 5622 5625
5310 5306 5304 5301 5297 5290 5280 5270 5261 5254 5251 5263 5282 5296 5313 5326 5339 5352 5371 5387 5402 5414 5422 5434 5448 5458 5462 5470 5477 5483 5490 5496 5505 5513 5520 5526 5531 5541 5543 5550 5564 5568 5572 5575 5579 5586 5589 5594 5595 5602 5604 5610 5613 5615
5306 5302 5301 5298 5293 5286 5274 5263 5255 5251 5252 5264 5276 5293 5309 5324 5336 5352 5366 5383 5399 5411 5419 5433 5443 5451 5457 5465 5468 5476 5483 5490 5498 5506 5511 5516 5525 5534 5540 5546 5553 5563 5568 5570 5573 5579 5581 5584 5590 5592 5595 5600 5604 5606
5310 5306 5302 5299 5294 5288 5278 5266 5259 5259 5265 5274 5285 5297 5310 5323 5338 5352 5365 5382 5397 5411 5421 5431 5437 5444 5452 5459 5464 5471 5476 5482 5489 5497 5503 5511 5519 5527 5535 5539 5542 5554 5564 5563 5567 5572 5572 5575 5577 5581 5586 5588 5592 5594
5316 5311 5307 5303 5301 5294 5285 5276 5272 5272 5277 5286 5296 5307 5319 5331 5342 5351 5364 5380 5397 5411 5420 5428 5434 5441 5449 5455 5459 5465 5471 5476 5483 5490 5497 5506 5514 5520 5526 5533 5540 5549 5554 5557 5559 5562 5560 5563 5567 5572 5575 5579 5582 5587
5326 5322 5318 5313 5310 5306 5299 5292 5288 5291 5295 5301 5309 5320 5330 5340 5350 5364 5379 5395 5404 5411 5419 5427 5433 5439 5443 5448 5454 5459 5465 5469 5477 5483 5492 5501 5510 5514 5520 5526 5530 5534 5540 5544 5542 5546 5555 5557 5560 5564 5567 5570 5572 5576
5333 5331 5329 5326 5324 5321 5317 5314 5311 5311 5312 5316 5323 5332 5342 5353 5364 5375 5388 5397 5406 5412 5418 5424 5431 5437 5441 5445 5449 5453 5460 5463 5469 5477 5487 5495 5502 5507 5511 5517 5521 5527 5534 5539 5542 5545 5549 5551 5553 5556 5558 5561 5563 5565
5341 5339 5337 5336 5335 5334 5333 5333 5332 5333 5336 5340 5344 5350 5357 5367 5376 5383 5393 5401 5408 5415 5419 5426 5431 5436 5439 5442 5443 5447 5453 5456 5463 5472 5480 5489 5495 5497 5503 5509 5515 5521 5527 5532 5536 5538 5541 5543 5546 5548 5550 5554 5556 5557
5349 5348 5346 5344 5344 5344 5344 5345 5347 5349 5352 5355 5359 5364 5369 5377 5384 5391 5399 5404 5410 5415 5421 5425 5430 5432 5435 5435 5440 5447 5451 5455 5461 5468 5475 5482 5485 5493 5498 5503 5508 5514 5520 5525 5528 5531 5533 5534 5536 5539 5542 5545 5545 5544
5355 5355 5355 5354 5354 5354 5354 5355 5357 5360 5363 5367 5370 5374 5378 5384 5390 5396 5401 5406 5412 5417 5421 5424 5427 5430 5432 5434 5439 5445 5450 5453 5458 5465 5470 5474 5477 5485 5491 5497 5502 5507 5512 5517 5520 5522 5524 5526 5527 5529 5530 5531 5532 5532
5360 5361 5361 5362 5363 5363 5364 5366 5367 5370 5373 5375 5378 5381 5385 5390 5394 5399 5403 5408 5412 5416 5418 5421 5425 5428 5432 5434 5439 5446 5448 5451 5455 5462 5466 5471 5476 5482 5484 5489 5496 5500 5505 5509 5512 5514 5516 5518 5518 5518 5519 5519 5520 5520
5368 5368 5368 5368 5369 5370 5372 5373 5374 5376 5378 5380 5382 5385 5389 5393 5396 5400 5403 5407 5409 5413 5416 5422 5425 5431 5433 5435 5440 5444 5449 5453 5458 5461 5464 5471 5475 5476 5480 5485 5489 5494 5498 5501 5504 5505 5506 5506 5505 5505 5506 5507 5507 5507
5372 5373 5373 5374 5375 5375 5375 5377 5377 5378 5380 5382 5385 5388 5392 5395 5398 5401 5404 5407 5410 5414 5420 5426 5429 5430 5434 5437 5443 5446 5449 5452 5455 5459 5463 5468 5470 5472 5475 5479 5483 5485 5488 5491 5493 5494 5495 5495 5495 5496 5496 5496 5496 5496
5379 5379 5380 5380 5381 5379 5379 5380 5381 5380 5380 5381 5384 5388 5393 5398 5400 5403 5407 5410 5413 5420 5425 5430 5432 5434 5438 5441 5442 5445 5447 5450 5455 5458 5462 5465 5467 5470 5472 5474 5477 5480 5482 5483 5484 5484 5484 5484 5484 5484 5484 5484 5484 5483
5386 5386 5385 5384 5382 5383 5383 5384 5384 5384 5384 5384 5387 5390 5393 5398 5402 5405 5408 5412 5418 5424 5430 5432 5434 5435 5436 5439 5444 5446 5450 5452 5453 5456 5459 5462 5463 5465 5467 5470 5472 5473 5473 5474 5475 5475 5475 5474 5474 5473 5472 5472 5471 5469
5392 5390 5389 5389 5389 5388 5388 5388 5388 5386 5386 5388 5388 5390 5393 5399 5403 5408 5413 5418 5425 5430 5433 5435 5436 5438 5441 5442 5443 5447 5448 5451 5454 5455 5457 5459 5459 5461 5463 5463 5464 5464 5465 5465 5465 5464 5464 5463 5462 5461 5460 5459 5458 5457
5397 5396 5395 5395 5395 5396 5397 5396 5396 5396 5395 5395 5397 5399 5401 5405 5410 5416 5422 5427 5432 5435 5437 5439 5440 5441 5442 5444 5447 5449 5451 5452 5453 5454 5455 5455 5456 5456 5456 5457 5457 5457 5456 5456 5455 5454 5453 5452 5451 5450 5449 5447 5446 5444
5404 5404 5405 5404 5404 5404 5405 5405 5407 5406 5407 5408 5408 5411 5414 5417 5421 5426 5430 5434 5436 5437 5438 5439 5440 5442 5443 5444 5445 5446 5447 5449 5449 5450 5451 5451 5451 5450 5450 5449 5448 5446 5445 5444 5443 5442 5441 5440 5438 5437 5435 5433 5431 5429
5412 5412 5412 5413 5413 5414 5415 5413 5416 5416 5415 5417 5419 5422 5424 5426 5429 5431 5433 5436 5438 5440 5442 5443 5444 5445 5445 5445 5446 5446 5447 5447 5447 5446 5446 5446 5445 5444 5442 5441 5439 5437 5435 5433 5431 5429 5428 5426 5424 5422 5420 5418 5415 5413
5418 5419 5419 5420 5420 5423 5424 5423 5424 5424 5424 5425 5426 5428 5431 5432 5434 5437 5439 5441 5443 5443 5445 5445 5446 5446 5446 5446 5446 5446 5446 5445 5444 5443 5442 5441 5439 5436 5434 5432 5429 5427 5425 5422 5420 5417 5414 5411 5409 5406 5404 5401 5399 5397
5422 5423 5424 5425 5426 5428 5428 5429 5430 5431 5432 5432 5434 5436 5437 5438 5440 5441 5441 5444 5446 5446 5446 5446 5445 5445 5444 5443 5441 5439 5437 5435 5433 5431 5428 5426 5424 5421 5419 5416 5413 5411 5408 5406 5403 5401 5398 5396 5393 5390 5388 5385 5383 5379
5424 5426 5428 5429 5431 5432 5434 5435 5435 5437 5438 5438 5439 5440 5440 5440 5441 5442 5442 5444 5443 5442 5442 5441 5439 5438 5436 5434 5431 5429 5426 5423 5419 5416 5413 5409 5406 5403 5400 5398 5395 5393 5391 5389 5387 5384 5382 5379 5377 5374 5371 5368 5365 5361
5427 5429 5430 5432 5435 5436 5437 5438 5439 5440 5441 5441 5441 5442 5442 5443 5443 5442 5442 5441 5440 5438 5437 5436 5434 5431 5428 5425 5422 5418 5415 5411 5406 5401 5396 5392 5389 5386 5384 5381 5379 5377 5375 5373 5371 5369 5367 5363 5361 5359 5356 5353 5350 5346
5430 5432 5434 5435 5436 5438 5438 5439 5440 5441 5441 5441 5442 5442 5441 5441 5440 5439 5438 5436 5434 5432 5429 5426 5423 5419 5415 5411 5406 5400 5394 5389 5385 5382 5379 5376 5373 5370 5368 5366 5364 5363 5361 5359 5358 5356 5354 5351 5348 5346 5343 5339 5336 5332
5430 5432 5435 5436 5437 5439 5439 5440 5440 5440 5440 5440 5440 5439 5438 5437 5435 5434 5432 5429 5427 5423 5420 5416 5412 5408 5402 5395 5389 5383 5378 5374 5370 5366 5363 5360 5358 5357 5354 5352 5351 5350 5348 5347 5345 5343 5341 5339 5336 5333 5331 5327 5324 5321
5430 5432 5434 5435 5437 5439 5439 5440 5440 5439 5439 5438 5437 5436 5434 5432 5430 5428 5424 5421 5418 5414 5410 5405 5399 5392 5385 5379 5374 5370 5365 5361 5358 5355 5352 5350 5348 5346 5344 5342 5340 5339 5337 5336 5335 5333 5331 5329 5327 5325 5322 5319 5316 5312
5431 5432 5434 5435 5436 5437 5437 5437 5437 5436 5436 5435 5433 5431 5429 5426 5424 5420 5417 5413 5409 5404 5399 5392 5385 5378 5372 5367 5362 5358 5355 5352 5350 5347 5345 5343 5341 5339 5337 5335 5333 5332 5330 5329 5327 5326 5324 5323 5321 5319 5315 5312 5308 5304
5430 5431 5433 5433 5434 5434 5434 5434 5433 5433 5431 5430 5428 5425 5423 5420 5416 5413 5409 5404 5399 5393 5386 5379 5372 5366 5361 5356 5352 5349 5346 5344 5342 5340 5338 5336 5334 5333 5331 5329 5327 5326 5325 5324 5323 5321 5320 5317 5315 5312 5308 5304 5300 5296
5428 5429 5430 5430 5431 5431 5430 5430 5429 5427 5425 5423 5422 5418 5416 5413 5409 5405 5401 5395 5389 5382 5374 5367 5361 5355 5350 5345 5341 5339 5336 5334 5333 5332 5330 5329 5328 5326 5325 5324 5324 5323 5322 5320 5319 5317 5314 5311 5308 5305 5301 5297 5293 5288
5425 5425 5426 5426 5426 5426 5425 5424 5423 5421 5419 5416 5414 5412 5409 5405 5401 5396 5391 5384 5377 5370 5363 5357 5351 5346 5340 5336 5332 5330 5329 5327 5326 5325 5325 5324 5324 5324 5323 5322 5321 5320 5318 5316 5314 5312 5309 5306 5303 5299 5295 5291 5286 5280
5420 5421 5421 5421 5421 5420 5419 5418 5416 5414 5413 5410 5407 5404 5400 5396 5392 5387 5381 5374 5366 5360 5353 5348 5344 5340 5336 5333 5329 5327 5325 5325 5324 5324 5323 5323 5322 5322 5321 5319 5318 5316 5314 5312 5310 5307 5304 5301 5297 5293 5289 5284 5279 5274
5415 5416 5416 5415 5414 5414 5413 5412 5409 5407 5405 5402 5399 5396 5392 5388 5383 5378 5371 5365 5359 5353 5347 5343 5340 5338 5335 5333 5330 5328 5326 5325 5324 5323 5322 5322 5321 5319 5318 5316 5314 5312 5310 5308 5305 5302 5298 5294 5291 5286 5282 5278 5273 5268